RH
96 91 90 94 96 96 96 85 73 57 48 45 42 40 38 33 30 26 26 26 25 22 21 20 18 15 11 11 8 10 11 11 10 9 7 9 13 16 16 17 14 11 12 13 27 57 60
88 91 92 90 92 90 92 90 89 87 74 58 48 43 39 35 30 27 25 20 25 22 21 21 20 19 19 17 11 12 12 12 12 10 10 12 15 15 17 18 13 15 15 14 42 56 60
69 78 83 85 88 88 87 86 86 86 84 80 74 55 41 36 33 28 25 20 22 22 22 24 27 31 25 16 12 12 11 10 9 10 12 13 16 15 16 16 16 17 14 15 53 62 58
62 44 60 69 74 77 81 84 83 82 81 81 76 76 69 41 29 27 24 21 20 22 24 26 25 31 31 22 18 18 13 12 11 11 12 11 12 17 18 18 17 18 18 15 27 60 64
81 76 44 43 55 65 68 68 71 75 78 80 79 73 70 73 65 45 24 21 20 24 27 28 33 36 32 21 18 21 21 17 14 13 13 11 14 18 20 20 15 18 13 18 16 48 64
84 87 85 44 35 39 47 53 58 58 57 64 72 74 66 68 65 64 58 38 27 28 34 31 39 34 24 23 24 23 23 23 20 15 16 17 18 23 25 18 13 14 21 23 22 38 54
79 80 79 67 41 33 33 34 36 37 47 51 47 52 66 59 56 56 56 36 31 35 30 31 22 28 21 24 22 24 24 23 22 17 21 23 21 22 21 24 19 24 26 26 22 18 38
66 73 62 57 55 39 32 29 28 27 27 30 40 41 41 48 52 59 60 47 54 66 66 29 29 36 31 37 46 24 25 29 23 21 22 22 26 22 23 24 25 26 26 22 20 30 27
63 76 71 62 56 51 39 32 28 26 25 25 25 27 29 29 35 59 64 58 57 68 80 40 41 44 44 44 45 33 36 32 26 24 24 24 19 24 23 25 27 27 27 24 22 22 49
68 53 71 67 60 57 49 37 31 28 26 25 23 21 22 24 29 50 65 58 62 74 54 39 42 37 39 44 38 26 38 32 29 32 28 27 25 23 22 24 24 28 22 23 24 24 22
74 66 56 71 62 62 55 45 38 34 30 29 25 21 20 26 65 68 61 57 70 56 14 17 35 33 36 35 27 29 38 36 33 29 27 29 24 27 28 26 24 23 22 23 23 25 28
68 65 69 67 72 66 67 56 45 40 38 34 28 26 22 35 70 71 62 57 65 34 26 33 37 31 34 31 26 26 36 34 33 33 29 27 23 20 20 21 23 21 23 24 33 30 30
73 68 66 62 75 66 67 63 49 43 41 37 31 28 26 30 45 76 66 63 69 52 32 25 38 32 31 30 28 25 34 37 30 33 37 32 32 27 22 27 23 23 27 33 32 37 28
76 70 63 66 61 70 52 56 51 48 44 41 34 28 27 22 72 64 80 76 79 48 50 42 44 43 39 32 31 28 32 32 32 30 35 33 33 30 27 26 25 31 28 35 38 31 27
78 77 65 69 67 68 55 53 52 52 48 46 41 34 24 24 79 88 95 94 67 58 50 48 37 40 46 40 36 34 33 31 29 31 31 40 39 28 27 26 24 31 32 26 34 32 38
86 87 75 71 72 74 65 57 57 52 50 51 50 41 28 27 47 76 99 68 67 57 56 53 34 36 46 37 29 33 36 33 32 30 28 32 38 30 24 24 24 24 25 32 42 41 39
85 79 83 75 68 72 73 64 66 56 54 59 68 44 38 30 33 65 90 79 64 57 56 63 63 56 58 53 45 43 38 34 31 33 32 34 38 33 31 30 27 31 30 31 32 42 43
98 91 78 80 79 71 71 67 71 63 65 75 82 80 52 56 66 96 81 67 59 64 54 65 67 69 66 63 63 57 57 37 43 43 48 37 47 50 34 27 26 25 28 29 48 43 53
92 83 88 78 80 74 72 73 68 68 73 95 85 75 91 81 81 86 74 61 53 54 62 69 74 68 69 65 66 64 52 41 36 42 48 46 53 61 51 39 41 35 36 31 36 40 48
91 94 92 73 79 78 73 74 68 71 74 98 80 93 92 96 90 70 58 53 50 41 48 45 50 50 58 68 69 73 66 54 56 56 53 52 60 58 59 47 41 46 43 36 38 50 45
90 95 93 96 69 88 77 79 73 70 72 98 84 88 79 94 92 86 74 72 71 40 51 42 47 48 41 41 40 58 58 54 49 50 57 53 64 58 59 50 41 48 44 39 41 39 48
92 90 82 93 65 82 81 81 74 70 72 100 87 88 92 89 77 98 83 73 65 66 63 54 58 55 59 63 50 57 55 50 52 47 56 64 84 70 69 49 52 55 43 40 38 37 39
99 98 92 96 66 79 82 86 72 71 79 99 94 82 79 82 84 90 77 68 66 68 66 60 59 68 69 60 57 60 63 65 62 65 62 67 84 90 92 65 62 86 65 49 40 38 37
99 100 100 95 58 84 85 83 73 73 84 97 88 82 92 87 85 77 67 67 67 68 73 62 66 70 65 62 65 67 62 63 64 65 64 63 60 81 95 89 97 55 41 42 46 43 38
98 92 69 48 44 79 86 81 74 74 84 99 91 91 93 95 78 74 74 71 67 67 64 70 70 68 69 74 80 68 55 53 43 52 58 62 56 68 95 95 75 56 45 45 43 41 32
95 94 71 35 49 80 86 80 76 74 82 97 98 92 89 94 83 80 80 81 83 77 79 73 64 62 74 77 87 86 73 43 44 38 40 54 51 62 70 94 88 47 38 36 41 59 32
97 81 44 29 58 81 84 80 77 77 79 94 94 92 98 98 88 84 82 81 75 69 78 72 71 66 67 85 84 82 83 54 67 57 52 50 58 74 70 77 65 54 50 44 68 53 39
89 74 30 46 77 85 88 84 75 72 78 96 96 89 95 98 97 92 87 86 87 86 89 73 78 70 77 82 76 72 72 58 63 60 62 58 61 66 72 85 86 36 45 61 44 33 40
84 75 67 76 88 91 94 96 92 66 71 99 100 99 100 100 99 92 91 86 88 84 80 80 73 60 62 81 80 85 94 82 77 91 53 72 56 61 52 54 40 38 40 37 39 40 35
Wind_Speed
13 14 15 14 11 11 10 10 11 11 11 12 14 14 14 14 14 15 16 17 17 18 18 19 20 21 17 9 2 4 6 7 6 8 10 11 13 5 3 1 2 2 0 2 4 7 8
12 13 16 17 16 14 14 12 12 11 12 13 14 15 15 14 15 15 16 18 17 17 18 18 19 20 18 8 7 7 9 8 6 7 7 7 5 5 4 1 1 1 3 7 5 8 8
10 12 13 13 16 17 17 15 14 13 13 13 14 16 16 17 15 16 17 17 18 18 17 17 18 20 20 13 6 10 15 13 10 9 3 3 5 4 4 2 2 1 3 1 3 6 3
8 9 13 15 15 16 18 18 17 16 15 15 15 16 17 17 17 16 17 18 18 18 18 17 17 17 11 13 9 6 9 10 9 6 3 4 1 1 0 2 4 2 2 2 1 8 2
9 10 10 11 13 15 15 16 18 20 20 19 18 18 16 15 17 17 18 19 19 18 17 15 13 9 8 2 2 3 8 6 3 5 6 5 2 1 1 3 2 5 2 1 1 7 4
8 9 10 10 11 12 14 16 16 17 19 22 22 21 18 16 15 17 18 19 17 13 8 8 3 6 2 2 12 12 6 5 4 2 2 3 2 2 2 1 3 1 1 1 4 4 7
10 11 11 11 10 10 12 13 14 15 17 18 20 22 20 18 15 15 17 17 7 4 10 11 15 17 28 18 16 16 11 8 4 2 1 3 1 5 6 4 2 2 2 5 7 6 7
12 12 11 11 11 11 11 12 12 13 14 16 18 18 18 17 13 10 10 5 5 7 11 18 22 23 22 20 11 13 15 5 3 4 3 2 4 7 2 4 4 4 6 12 8 1 8
11 12 12 11 11 10 11 11 12 13 13 13 15 15 15 14 11 7 5 3 5 9 5 10 8 9 3 2 5 5 3 8 4 3 3 4 2 5 3 2 3 3 5 7 9 4 4
11 12 12 12 12 11 11 11 12 13 13 13 13 12 11 9 8 9 5 3 5 6 2 5 4 1 0 1 1 5 1 3 2 5 5 4 3 5 8 7 5 8 5 9 7 6 8
13 12 12 12 12 12 12 11 11 12 13 13 12 10 7 5 4 9 8 5 2 2 4 1 1 1 3 2 4 7 6 5 4 3 4 4 1 2 3 5 5 5 1 3 7 9 3
14 14 13 12 12 13 12 12 12 12 12 13 11 8 6 7 11 11 9 4 2 4 7 2 1 2 1 1 1 4 3 4 3 3 1 6 2 4 6 4 5 1 2 10 1 3 10
14 14 13 13 13 13 14 13 12 12 12 12 10 8 6 6 11 14 10 5 3 4 1 2 2 2 1 1 2 4 4 3 3 1 2 2 6 9 10 13 8 6 7 5 3 2 5
14 14 13 13 14 14 13 13 13 12 12 12 11 9 8 8 9 16 10 2 5 4 5 2 3 2 4 4 3 1 4 4 3 3 2 3 4 5 3 8 4 5 6 4 6 5 6
15 14 13 12 12 13 13 13 13 12 12 11 10 10 9 9 13 10 8 4 7 6 4 6 3 2 2 2 2 1 3 4 7 11 7 4 5 3 5 3 6 4 6 3 7 11 10
15 14 14 14 13 12 12 12 12 12 11 10 9 7 11 9 16 13 4 11 4 2 3 2 10 6 6 5 4 3 4 3 3 13 7 2 7 6 3 5 6 5 7 2 1 5 10
17 16 15 15 14 14 13 13 12 11 10 8 6 4 4 11 12 8 9 7 3 3 8 5 1 3 3 2 2 3 5 1 2 7 4 1 6 7 3 7 13 4 4 3 3 4 6
19 17 17 16 15 14 14 14 12 11 11 11 4 2 4 10 5 3 10 5 7 7 6 4 4 2 1 1 2 3 5 3 7 9 9 4 3 5 15 9 7 11 13 11 6 7 6
22 21 19 19 17 16 16 17 15 13 15 15 4 5 3 16 4 3 4 5 5 2 3 5 3 5 8 3 5 10 11 3 17 9 3 10 4 8 13 5 2 7 7 12 8 5 18
23 24 20 21 19 18 18 19 18 17 17 18 5 2 2 10 4 3 5 5 4 3 4 9 11 11 7 5 6 9 7 6 17 22 31 13 10 16 18 17 5 8 7 11 12 11 15
24 25 24 21 22 19 20 20 20 20 20 24 12 5 5 4 9 6 1 0 1 6 3 4 3 9 9 7 14 20 20 18 16 21 19 6 15 20 23 27 24 17 21 21 21 23 19
27 28 28 23 24 22 21 22 22 23 23 30 11 5 5 2 10 10 9 8 11 10 3 5 6 6 6 9 11 19 16 13 11 15 16 9 13 17 26 29 25 25 30 31 29 28 21
29 29 27 26 26 24 22 24 25 26 29 26 23 12 7 8 5 4 7 11 5 9 9 19 12 9 12 18 20 20 20 22 24 19 16 11 7 8 20 23 18 18 27 26 27 22 22
32 30 29 31 27 26 25 26 26 28 32 29 22 17 5 4 8 10 8 18 16 18 17 17 16 15 8 12 26 23 25 30 30 28 24 19 19 11 13 15 21 21 15 19 18 21 22
36 41 37 32 28 28 26 27 27 29 31 36 27 20 11 4 13 15 16 20 19 17 21 22 26 31 28 18 10 11 8 11 18 27 23 23 16 12 11 18 21 21 19 15 17 27 23
39 38 34 32 30 29 28 27 27 28 29 34 36 31 15 5 9 13 11 14 10 9 14 24 26 32 23 8 5 7 7 7 7 9 12 18 20 14 16 19 29 24 25 30 17 23 22
32 29 30 30 30 28 29 29 29 28 28 31 32 33 28 16 19 14 12 10 15 11 9 13 10 19 18 6 9 10 15 13 13 16 17 10 12 19 21 22 21 16 19 6 15 16 10
24 23 27 29 29 29 29 28 27 27 27 30 33 31 29 16 22 19 22 27 21 15 10 5 5 7 6 8 6 8 10 13 18 28 30 20 12 17 17 22 31 23 29 33 19 28 16
22 23 25 27 28 28 29 28 26 25 26 26 29 30 27 29 13 11 20 33 37 35 28 18 19 15 5 5 5 3 4 6 14 15 16 20 22 18 19 17 13 20 40 50 44 38 27
Wind_Direction
254 256 261 271 276 280 288 292 293 298 298 298 301 303 308 314 321 328 337 341 342 337 337 339 339 341 347 336 289 267 273 287 324 341 1 21 36 37 52 49 39 85 169 307 257 190 169
255 256 258 258 264 268 275 283 289 293 294 298 301 303 304 308 314 319 327 334 336 332 330 335 334 332 335 316 296 282 277 281 298 335 13 27 30 24 101 92 96 253 263 284 227 189 169
268 259 259 263 260 265 271 274 278 282 288 291 292 297 301 306 311 313 317 322 328 323 322 329 328 323 313 294 301 289 282 288 288 289 318 44 24 15 343 352 345 292 299 338 186 188 189
311 287 270 265 266 264 262 269 273 277 282 284 289 294 296 301 307 313 313 315 318 316 319 320 320 313 284 292 295 300 300 301 284 266 275 300 324 352 76 320 15 30 61 334 90 168 227
314 311 301 286 272 269 268 267 266 267 270 275 280 288 296 305 308 310 312 316 318 317 313 315 310 307 278 316 65 10 8 0 304 232 239 266 212 122 57 67 352 17 262 255 181 205 149
303 301 302 294 294 289 280 274 271 270 269 268 272 279 287 295 311 317 317 322 320 311 309 308 299 318 259 293 310 301 308 335 349 172 163 186 136 88 69 103 268 294 331 271 268 170 199
288 291 295 298 294 292 290 286 282 280 275 274 272 271 276 284 300 319 325 345 343 287 303 272 275 281 284 286 284 278 271 283 302 226 181 37 170 227 238 207 178 155 256 280 271 240 214
282 292 292 293 294 290 286 287 289 289 289 286 280 278 273 279 288 315 342 35 36 319 302 288 282 272 277 281 277 282 257 240 166 202 117 41 258 250 130 179 211 231 280 279 293 189 211
286 284 288 289 287 288 287 285 284 285 288 289 294 292 284 273 275 285 324 32 350 330 288 295 264 275 303 243 229 325 212 192 152 152 177 194 237 82 147 196 235 234 243 275 279 312 243
295 286 279 286 288 289 289 284 282 285 287 289 295 301 300 273 264 238 234 206 320 318 358 269 251 257 174 173 272 345 180 174 102 197 174 243 320 239 249 262 199 277 225 258 283 306 292
296 290 277 280 282 284 286 287 284 282 282 283 288 296 301 250 195 187 182 193 289 348 328 238 177 144 160 174 304 29 143 170 146 140 146 232 189 218 240 229 167 253 171 259 281 275 282
284 288 284 273 278 278 279 280 280 280 279 282 286 293 288 237 199 194 178 174 158 58 250 317 168 163 127 223 191 125 134 117 102 162 212 249 265 233 218 221 183 59 331 318 336 245 259
288 288 283 275 270 273 273 275 276 276 277 279 280 276 262 233 213 204 197 170 70 182 348 226 162 169 135 198 244 171 142 162 187 319 333 311 238 251 236 269 249 246 282 302 282 225 274
285 288 283 279 268 269 268 267 269 272 273 275 274 269 252 236 210 211 207 86 206 214 193 29 107 50 186 173 258 81 119 183 206 109 147 257 298 196 155 203 201 187 185 210 271 269 286
284 282 281 280 271 264 266 263 261 266 273 275 273 269 250 217 202 211 182 205 213 193 192 166 121 131 248 258 208 88 219 213 202 175 196 198 248 274 209 152 175 146 203 267 265 264 280
284 279 278 275 273 263 257 259 256 258 261 267 274 268 251 216 201 205 214 230 213 245 24 29 195 183 191 205 191 190 200 174 223 197 218 252 286 232 239 157 222 206 151 193 155 291 285
287 279 276 273 268 263 252 252 248 247 246 244 256 262 252 206 202 191 209 220 274 285 12 31 268 189 170 177 175 198 224 250 89 27 278 299 224 254 147 200 228 179 212 199 256 205 270
285 284 276 271 267 261 250 243 239 233 223 212 221 259 262 195 161 204 228 257 11 354 341 10 349 346 282 355 296 278 242 168 43 24 341 290 250 257 242 227 221 227 240 234 231 233 234
288 278 280 267 264 258 249 238 232 222 214 193 211 263 258 177 190 219 264 285 271 345 10 22 327 21 19 305 273 241 259 355 293 316 323 355 282 310 298 238 147 229 213 229 240 274 258
281 282 271 271 258 256 248 236 228 217 213 197 208 235 222 198 225 161 217 260 266 354 262 253 259 287 304 277 263 277 283 318 337 321 310 319 271 243 256 263 283 263 232 217 218 259 270
284 280 272 269 255 254 244 233 225 216 211 198 206 228 200 192 223 214 168 72 344 257 331 284 288 240 241 263 259 264 277 294 294 295 283 267 262 264 276 279 265 263 272 265 249 251 248
276 272 270 262 253 246 239 233 223 214 208 206 196 188 186 215 166 194 223 238 258 258 275 272 247 304 300 253 251 293 318 305 282 293 296 308 270 280 270 268 271 283 265 259 250 249 253
283 280 266 256 249 242 235 229 222 213 208 208 210 198 183 195 192 186 219 217 230 200 243 239 252 258 253 265 280 282 280 274 267 274 275 274 272 277 270 268 271 272 245 256 258 246 242
278 275 267 258 242 235 231 226 222 215 213 207 211 203 194 223 205 215 212 229 238 246 252 262 276 278 261 287 302 293 280 272 261 255 240 249 248 267 271 290 251 252 241 260 252 243 235
279 276 267 251 236 230 229 224 221 217 216 214 210 201 195 234 225 232 242 248 260 264 263 266 266 267 277 284 290 292 273 274 253 240 228 221 232 245 255 254 276 275 237 239 237 256 247
278 267 255 239 229 227 224 222 221 219 218 219 221 221 216 239 228 231 232 241 259 265 276 268 281 275 262 247 220 251 258 285 284 294 214 216 222 212 237 245 249 257 253 239 268 266 262
271 258 231 230 223 225 220 221 222 220 219 219 224 224 230 247 252 239 229 243 244 241 259 278 273 278 236 221 245 250 253 257 255 270 271 257 222 218 235 243 253 249 287 198 203 252 206
259 239 223 219 222 220 218 219 219 218 217 219 225 225 223 240 248 237 239 244 251 249 252 239 326 246 239 246 256 250 248 248 249 248 257 253 240 232 232 238 248 225 228 236 263 271 258
242 224 220 221 219 214 214 215 211 218 216 217 222 232 235 239 248 227 250 250 243 247 254 249 241 247 303 254 241 298 283 304 288 285 274 254 234 245 226 233 242 221 225 234 237 245 248